owner,sensor,date,latitude,longitude,vertical_datum,direction_of_sea_water_velocity,sea_water_speed,upward_sea_water_velocity,qcFlag 
TABS,ioos:station:wmo:42050:1,1997-05-01T00:00:00Z,28.8425,-94.2433,2.0,205.4061482,29.85761209,-99999.0,'11111222,11111222,99999999' 
TABS,ioos:station:wmo:42050:1,1997-05-01T00:30:00Z,28.8425,-94.2433,2.0,205.503374,28.72945875,-99999.0,'11111222,11111222,99999999' 
TABS,ioos:station:wmo:42050:1,1997-05-01T01:00:00Z,28.8425,-94.2433,2.0,213.4567197,30.00120831,-99999.0,'11111222,11111222,99999999' 
TABS,ioos:station:wmo:42050:1,1997-05-01T01:30:00Z,28.8425,-94.2433,2.0,216.4096965,33.13906758,-99999.0,'11111222,11111222,99999999' 
TABS,ioos:station:wmo:42050:1,1997-05-01T02:00:00Z,28.8425,-94.2433,2.0,225.8403936,36.14411847,-99999.0,'11111222,11111222,99999999' 
TABS,ioos:station:wmo:42050:1,1997-05-01T02:30:00Z,28.8425,-94.2433,2.0,233.5893485,37.40120319,-99999.0,'11111222,11111222,99999999' 
TABS,ioos:station:wmo:42050:1,1997-05-01T03:00:00Z,28.8425,-94.2433,2.0,236.6726862,38.51360798,-99999.0,'11111222,11111222,99999999' 
TABS,ioos:station:wmo:42050:1,1997-05-01T03:30:00Z,28.8425,-94.2433,2.0,239.6628403,37.45924852,-99999.0,'11111222,11111222,99999999' 
TABS,ioos:station:wmo:42050:1,1997-05-01T04:00:00Z,28.8425,-94.2433,2.0,244.373209,36.85534561,-99999.0,'11111222,11111222,99999999' 
TABS,ioos:station:wmo:42050:1,1997-05-01T04:30:00Z,28.8425,-94.2433,2.0,247.3772386,34.86230773,-99999.0,'11111222,11111222,99999999' 
TABS,ioos:station:wmo:42050:1,1997-05-01T05:00:00Z,28.8425,-94.2433,2.0,253.0436927,32.71201156,-99999.0,'11111222,11111222,99999999' 
TABS,ioos:station:wmo:42050:1,1997-05-01T05:30:00Z,28.8425,-94.2433,2.0,255.4324587,31.40971187,-99999.0,'11111222,11111222,99999999' 
TABS,ioos:station:wmo:42050:1,1997-05-01T06:00:00Z,28.8425,-94.2433,2.0,255.0243877,32.85586249,-99999.0,'11111222,11111222,99999999' 
TABS,ioos:station:wmo:42050:1,1997-05-01T06:30:00Z,28.8425,-94.2433,2.0,253.9078157,32.25373932,-99999.0,'11111222,11111222,99999999' 
TABS,ioos:station:wmo:42050:1,1997-05-01T07:00:00Z,28.8425,-94.2433,2.0,259.0745462,30.65560471,-99999.0,'11111222,11111222,99999999' 
TABS,ioos:station:wmo:42050:1,1997-05-01T07:30:00Z,28.8425,-94.2433,2.0,259.5980903,29.68786958,-99999.0,'11111222,11111222,99999999' 
TABS,ioos:station:wmo:42050:1,1997-05-01T08:00:00Z,28.8425,-94.2433,2.0,261.3987265,27.88357581,-99999.0,'11111222,11111222,99999999' 
TABS,ioos:station:wmo:42050:1,1997-05-01T08:30:00Z,28.8425,-94.2433,2.0,270.3678527,23.39048097,-99999.0,'11111222,11111222,99999999' 
TABS,ioos:station:wmo:42050:1,1997-05-01T09:00:00Z,28.8425,-94.2433,2.0,278.3126311,19.57564303,-99999.0,'11111222,11111222,99999999' 
TABS,ioos:station:wmo:42050:1,1997-05-01T09:30:00Z,28.8425,-94.2433,2.0,291.3904261,15.51895937,-99999.0,'11111222,11111222,99999999' 
TABS,ioos:station:wmo:42050:1,1997-05-01T10:00:00Z,28.8425,-94.2433,2.0,304.210648,14.05113519,-99999.0,'11111222,11111222,99999999' 
TABS,ioos:station:wmo:42050:1,1997-05-01T10:30:00Z,28.8425,-94.2433,2.0,326.0218716,16.53304872,-99999.0,'11111222,11111222,99999999' 
TABS,ioos:station:wmo:42050:1,1997-05-01T11:00:00Z,28.8425,-94.2433,2.0,332.1705468,14.99425223,-99999.0,'11111222,11111222,99999999' 
TABS,ioos:station:wmo:42050:1,1997-05-01T11:30:00Z,28.8425,-94.2433,2.0,352.4602585,15.92771798,-99999.0,'11111222,11111222,99999999' 
TABS,ioos:station:wmo:42050:1,1997-05-01T12:00:00Z,28.8425,-94.2433,2.0,348.2845253,16.89190635,-99999.0,'11111222,11111222,99999999' 
TABS,ioos:station:wmo:42050:1,1997-05-01T12:30:00Z,28.8425,-94.2433,2.0,358.8067238,21.60468699,-99999.0,'11111222,11111222,99999999' 
TABS,ioos:station:wmo:42050:1,1997-05-01T13:00:00Z,28.8425,-94.2433,2.0,0.953461023,18.03249567,-99999.0,'11111222,11111222,99999999' 
TABS,ioos:station:wmo:42050:1,1997-05-01T13:30:00Z,28.8425,-94.2433,2.0,15.14335495,14.81441528,-99999.0,'11111222,11111222,99999999' 
TABS,ioos:station:wmo:42050:1,1997-05-01T14:00:00Z,28.8425,-94.2433,2.0,30.72560918,11.95869976,-99999.0,'11111222,11111222,99999999' 
TABS,ioos:station:wmo:42050:1,1997-05-01T14:30:00Z,28.8425,-94.2433,2.0,34.16318498,10.079246,-99999.0,'11111222,11111222,99999999' 
TABS,ioos:station:wmo:42050:1,1997-05-01T15:00:00Z,28.8425,-94.2433,2.0,77.19387493,13.44442264,-99999.0,'11111222,11111222,99999999' 
TABS,ioos:station:wmo:42050:1,1997-05-01T15:30:00Z,28.8425,-94.2433,2.0,89.35913584,13.4108389,-99999.0,'11111222,11111222,99999999' 
TABS,ioos:station:wmo:42050:1,1997-05-01T16:00:00Z,28.8425,-94.2433,2.0,98.34520991,11.29964601,-99999.0,'11111222,11111222,99999999' 
TABS,ioos:station:wmo:42050:1,1997-05-01T16:30:00Z,28.8425,-94.2433,2.0,115.6820781,13.06018759,-99999.0,'11111222,11111222,99999999' 
TABS,ioos:station:wmo:42050:1,1997-05-01T17:00:00Z,28.8425,-94.2433,2.0,126.4026787,10.54835058,-99999.0,'11111222,11111222,99999999' 
TABS,ioos:station:wmo:42050:1,1997-05-01T17:30:00Z,28.8425,-94.2433,2.0,139.6316269,11.73386552,-99999.0,'11111222,11111222,99999999' 
TABS,ioos:station:wmo:42050:1,1997-05-01T18:00:00Z,28.8425,-94.2433,2.0,143.1492016,11.92200067,-99999.0,'11111222,11111222,99999999' 
TABS,ioos:station:wmo:42050:1,1997-05-01T18:30:00Z,28.8425,-94.2433,2.0,155.6061072,12.27588286,-99999.0,'11111222,11111222,99999999' 
TABS,ioos:station:wmo:42050:1,1997-05-01T19:00:00Z,28.8425,-94.2433,2.0,165.4400158,15.39437884,-99999.0,'11111222,11111222,99999999' 
TABS,ioos:station:wmo:42050:1,1997-05-01T19:30:00Z,28.8425,-94.2433,2.0,163.5237433,19.4277379,-99999.0,'11111222,11111222,99999999' 
TABS,ioos:station:wmo:42050:1,1997-05-01T20:00:00Z,28.8425,-94.2433,2.0,171.9079373,25.43322237,-99999.0,'11111222,11111222,99999999' 
TABS,ioos:station:wmo:42050:1,1997-05-01T20:30:00Z,28.8425,-94.2433,2.0,186.2043444,33.12402904,-99999.0,'11111222,11111222,99999999' 
TABS,ioos:station:wmo:42050:1,1997-05-01T21:00:00Z,28.8425,-94.2433,2.0,192.2354365,30.95312747,-99999.0,'11111222,11111222,99999999' 
TABS,ioos:station:wmo:42050:1,1997-05-01T21:30:00Z,28.8425,-94.2433,2.0,196.8871995,29.74258227,-99999.0,'11111222,11111222,99999999' 
TABS,ioos:station:wmo:42050:1,1997-05-01T22:00:00Z,28.8425,-94.2433,2.0,197.3463079,27.46933745,-99999.0,'11111222,11111222,99999999' 
TABS,ioos:station:wmo:42050:1,1997-05-01T22:30:00Z,28.8425,-94.2433,2.0,200.5262097,27.2073887,-99999.0,'11111222,11111222,99999999' 
TABS,ioos:station:wmo:42050:1,1997-05-01T23:00:00Z,28.8425,-94.2433,2.0,204.0817086,29.21258804,-99999.0,'11111222,11111222,99999999' 
TABS,ioos:station:wmo:42050:1,1997-05-01T23:30:00Z,28.8425,-94.2433,2.0,216.5752353,23.7463134,-99999.0,'11111222,11111222,99999999' 
TABS,ioos:station:wmo:42050:1,1997-05-02T00:00:00Z,28.8425,-94.2433,2.0,222.1927674,21.51478794,-99999.0,'11111222,11111222,99999999' 
TABS,ioos:station:wmo:42050:1,1997-05-02T00:30:00Z,28.8425,-94.2433,2.0,235.3228402,21.74192494,-99999.0,'11111222,11111222,99999999' 
TABS,ioos:station:wmo:42050:1,1997-05-02T01:00:00Z,28.8425,-94.2433,2.0,241.1363327,20.07367679,-99999.0,'11111222,11111222,99999999' 
TABS,ioos:station:wmo:42050:1,1997-05-02T01:30:00Z,28.8425,-94.2433,2.0,264.3187015,21.11369698,-99999.0,'11111222,11111222,99999999' 
TABS,ioos:station:wmo:42050:1,1997-05-02T02:00:00Z,28.8425,-94.2433,2.0,271.1461811,22.50449955,-99999.0,'11111222,11111222,99999999' 
TABS,ioos:station:wmo:42050:1,1997-05-02T02:30:00Z,28.8425,-94.2433,2.0,281.3821903,21.89050022,-99999.0,'11111222,11111222,99999999' 
TABS,ioos:station:wmo:42050:1,1997-05-02T03:00:00Z,28.8425,-94.2433,2.0,283.722686,19.47590306,-99999.0,'11111222,11111222,99999999' 
TABS,ioos:station:wmo:42050:1,1997-05-02T03:30:00Z,28.8425,-94.2433,2.0,287.6541107,20.64210503,-99999.0,'11111222,11111222,99999999' 
TABS,ioos:station:wmo:42050:1,1997-05-02T04:00:00Z,28.8425,-94.2433,2.0,287.4818117,22.8031796,-99999.0,'11111222,11111222,99999999' 
TABS,ioos:station:wmo:42050:1,1997-05-02T04:30:00Z,28.8425,-94.2433,2.0,298.0385815,28.52824039,-99999.0,'11111222,11111222,99999999' 
TABS,ioos:station:wmo:42050:1,1997-05-02T05:00:00Z,28.8425,-94.2433,2.0,300.0982022,24.96618513,-99999.0,'11111222,11111222,99999999' 
TABS,ioos:station:wmo:42050:1,1997-05-02T05:30:00Z,28.8425,-94.2433,2.0,306.057776,21.01611287,-99999.0,'11111222,11111222,99999999' 
TABS,ioos:station:wmo:42050:1,1997-05-02T06:00:00Z,28.8425,-94.2433,2.0,311.7366436,20.36942807,-99999.0,'11111222,11111222,99999999' 
TABS,ioos:station:wmo:42050:1,1997-05-02T06:30:00Z,28.8425,-94.2433,2.0,300.7652254,16.30446871,-99999.0,'11111222,11111222,99999999' 
TABS,ioos:station:wmo:42050:1,1997-05-02T07:00:00Z,28.8425,-94.2433,2.0,304.0513027,12.76945183,-99999.0,'11111222,11111222,99999999' 
TABS,ioos:station:wmo:42050:1,1997-05-02T07:30:00Z,28.8425,-94.2433,2.0,331.0639529,7.99855612,-99999.0,'11133222,11111222,99999999' 
TABS,ioos:station:wmo:42050:1,1997-05-02T08:00:00Z,28.8425,-94.2433,2.0,338.4613201,6.891226306,-99999.0,'11133222,11111222,99999999' 
TABS,ioos:station:wmo:42050:1,1997-05-02T08:30:00Z,28.8425,-94.2433,2.0,0.000210459,5.66,-99999.0,'11133222,11111222,99999999' 
TABS,ioos:station:wmo:42050:1,1997-05-02T09:00:00Z,28.8425,-94.2433,2.0,0.000210459,5.07,-99999.0,'11133222,11111222,99999999' 
TABS,ioos:station:wmo:42050:1,1997-05-02T09:30:00Z,28.8425,-94.2433,2.0,7.355701654,5.858207917,-99999.0,'11133222,11111222,99999999' 
TABS,ioos:station:wmo:42050:1,1997-05-02T10:00:00Z,28.8425,-94.2433,2.0,47.83420962,6.435472011,-99999.0,'11133222,11111222,99999999' 
TABS,ioos:station:wmo:42050:1,1997-05-02T10:30:00Z,28.8425,-94.2433,2.0,47.3815386,7.487656509,-99999.0,'11133222,11111222,99999999' 
TABS,ioos:station:wmo:42050:1,1997-05-02T11:00:00Z,28.8425,-94.2433,2.0,55.14864346,8.347179164,-99999.0,'11133222,11111222,99999999' 
TABS,ioos:station:wmo:42050:1,1997-05-02T11:30:00Z,28.8425,-94.2433,2.0,64.00041014,6.79797764,-99999.0,'11133222,11111222,99999999' 
TABS,ioos:station:wmo:42050:1,1997-05-02T12:00:00Z,28.8425,-94.2433,2.0,54.89834203,8.556073866,-99999.0,'11133222,11111222,99999999' 
TABS,ioos:station:wmo:42050:1,1997-05-02T12:30:00Z,28.8425,-94.2433,2.0,87.66375795,11.03917569,-99999.0,'11111222,11111222,99999999' 
TABS,ioos:station:wmo:42050:1,1997-05-02T13:00:00Z,28.8425,-94.2433,2.0,79.67320001,11.65885929,-99999.0,'11111222,11111222,99999999' 
TABS,ioos:station:wmo:42050:1,1997-05-02T13:30:00Z,28.8425,-94.2433,2.0,78.42483825,11.86123096,-99999.0,'11111222,11111222,99999999' 
TABS,ioos:station:wmo:42050:1,1997-05-02T14:00:00Z,28.8425,-94.2433,2.0,67.79834429,12.22647946,-99999.0,'11111222,11111222,99999999' 
TABS,ioos:station:wmo:42050:1,1997-05-02T14:30:00Z,28.8425,-94.2433,2.0,62.6961866,15.26019659,-99999.0,'11111222,11111222,99999999' 
TABS,ioos:station:wmo:42050:1,1997-05-02T15:00:00Z,28.8425,-94.2433,2.0,75.73396449,18.13938533,-99999.0,'11111222,11111222,99999999' 
TABS,ioos:station:wmo:42050:1,1997-05-02T15:30:00Z,28.8425,-94.2433,2.0,93.50283779,17.02180073,-99999.0,'11111222,11111222,99999999' 
TABS,ioos:station:wmo:42050:1,1997-05-02T16:00:00Z,28.8425,-94.2433,2.0,92.01567361,21.32319394,-99999.0,'11111222,11111222,99999999' 
TABS,ioos:station:wmo:42050:1,1997-05-02T16:30:00Z,28.8425,-94.2433,2.0,107.2282912,20.12287256,-99999.0,'11111222,11111222,99999999' 
TABS,ioos:station:wmo:42050:1,1997-05-02T17:00:00Z,28.8425,-94.2433,2.0,114.044522,22.67777987,-99999.0,'11111222,11111222,99999999' 
TABS,ioos:station:wmo:42050:1,1997-05-02T17:30:00Z,28.8425,-94.2433,2.0,136.5204022,27.71420214,-99999.0,'11111222,11111222,99999999' 
TABS,ioos:station:wmo:42050:1,1997-05-02T18:00:00Z,28.8425,-94.2433,2.0,132.691291,28.78846991,-99999.0,'11111222,11111222,99999999' 
TABS,ioos:station:wmo:42050:1,1997-05-02T18:30:00Z,28.8425,-94.2433,2.0,142.4967968,29.86182345,-99999.0,'11111222,11111222,99999999' 
TABS,ioos:station:wmo:42050:1,1997-05-02T19:00:00Z,28.8425,-94.2433,2.0,157.4564718,32.26541337,-99999.0,'11111222,11111222,99999999' 
TABS,ioos:station:wmo:42050:1,1997-05-02T19:30:00Z,28.8425,-94.2433,2.0,165.865977,42.7130109,-99999.0,'11111222,11111222,99999999' 
TABS,ioos:station:wmo:42050:1,1997-05-02T20:00:00Z,28.8425,-94.2433,2.0,177.2778196,44.00965462,-99999.0,'11111222,11111222,99999999' 
TABS,ioos:station:wmo:42050:1,1997-05-02T20:30:00Z,28.8425,-94.2433,2.0,186.0505334,45.25210382,-99999.0,'11111222,11111222,99999999' 
TABS,ioos:station:wmo:42050:1,1997-05-02T21:00:00Z,28.8425,-94.2433,2.0,188.4879381,54.53738259,-99999.0,'11111222,11111222,99999999' 
TABS,ioos:station:wmo:42050:1,1997-05-02T21:30:00Z,28.8425,-94.2433,2.0,194.031238,58.36134765,-99999.0,'11111222,11111222,99999999' 
TABS,ioos:station:wmo:42050:1,1997-05-02T22:00:00Z,28.8425,-94.2433,2.0,200.4754282,60.91880662,-99999.0,'11111222,11111222,99999999' 
TABS,ioos:station:wmo:42050:1,1997-05-02T22:30:00Z,28.8425,-94.2433,2.0,206.6253021,63.50436599,-99999.0,'11111222,11111222,99999999' 
TABS,ioos:station:wmo:42050:1,1997-05-02T23:00:00Z,28.8425,-94.2433,2.0,210.5221688,62.7909245,-99999.0,'11111222,11111222,99999999' 
TABS,ioos:station:wmo:42050:1,1997-05-02T23:30:00Z,28.8425,-94.2433,2.0,224.3817063,59.00442187,-99999.0,'11111222,11111222,99999999' 
TABS,ioos:station:wmo:42050:1,1997-05-03T00:00:00Z,28.8425,-94.2433,2.0,231.9585776,62.6230828,-99999.0,'11111222,11111222,99999999' 
TABS,ioos:station:wmo:42050:1,1997-05-03T00:30:00Z,28.8425,-94.2433,2.0,241.4857736,56.81109751,-99999.0,'11111222,11111222,99999999' 
TABS,ioos:station:wmo:42050:1,1997-05-03T01:00:00Z,28.8425,-94.2433,2.0,246.4121927,53.98000463,-99999.0,'11111222,11111222,99999999' 
TABS,ioos:station:wmo:42050:1,1997-05-03T01:30:00Z,28.8425,-94.2433,2.0,249.0475383,52.49069727,-99999.0,'11111222,11111222,99999999' 
TABS,ioos:station:wmo:42050:1,1997-05-03T02:00:00Z,28.8425,-94.2433,2.0,253.8117526,52.90764217,-99999.0,'11111222,11111222,99999999' 
TABS,ioos:station:wmo:42050:1,1997-05-03T02:30:00Z,28.8425,-94.2433,2.0,256.742256,50.67037399,-99999.0,'11111222,11111222,99999999' 
TABS,ioos:station:wmo:42050:1,1997-05-03T03:00:00Z,28.8425,-94.2433,2.0,264.046597,50.3314216,-99999.0,'11111222,11111222,99999999' 
TABS,ioos:station:wmo:42050:1,1997-05-03T03:30:00Z,28.8425,-94.2433,2.0,269.4936456,50.96198681,-99999.0,'11111222,11111222,99999999' 
TABS,ioos:station:wmo:42050:1,1997-05-03T04:00:00Z,28.8425,-94.2433,2.0,271.0630986,47.98825377,-99999.0,'11111222,11111222,99999999' 
TABS,ioos:station:wmo:42050:1,1997-05-03T04:30:00Z,28.8425,-94.2433,2.0,275.0155587,44.26948046,-99999.0,'11111222,11111222,99999999' 
TABS,ioos:station:wmo:42050:1,1997-05-03T05:00:00Z,28.8425,-94.2433,2.0,280.3228541,40.73937162,-99999.0,'11111222,11111222,99999999' 
TABS,ioos:station:wmo:42050:1,1997-05-03T05:30:00Z,28.8425,-94.2433,2.0,288.3707006,39.25021529,-99999.0,'11111222,11111222,99999999' 
TABS,ioos:station:wmo:42050:1,1997-05-03T06:00:00Z,28.8425,-94.2433,2.0,290.3258297,34.31674227,-99999.0,'11111222,11111222,99999999' 
TABS,ioos:station:wmo:42050:1,1997-05-03T06:30:00Z,28.8425,-94.2433,2.0,300.3182663,29.51678167,-99999.0,'11111222,11111222,99999999' 
TABS,ioos:station:wmo:42050:1,1997-05-03T07:00:00Z,28.8425,-94.2433,2.0,301.5904487,25.88582817,-99999.0,'11111222,11111222,99999999' 
TABS,ioos:station:wmo:42050:1,1997-05-03T07:30:00Z,28.8425,-94.2433,2.0,287.9048266,15.02778759,-99999.0,'11111222,11111222,99999999' 
TABS,ioos:station:wmo:42050:1,1997-05-03T08:00:00Z,28.8425,-94.2433,2.0,317.4230965,17.39623522,-99999.0,'11111222,11111222,99999999' 
TABS,ioos:station:wmo:42050:1,1997-05-03T08:30:00Z,28.8425,-94.2433,2.0,310.2587814,7.613310712,-99999.0,'11133222,11111222,99999999' 
TABS,ioos:station:wmo:42050:1,1997-05-03T09:00:00Z,28.8425,-94.2433,2.0,294.5757906,1.803357979,-99999.0,'11133222,11111222,99999999' 
TABS,ioos:station:wmo:42050:1,1997-05-03T09:30:00Z,28.8425,-94.2433,2.0,168.6785131,9.882292244,-99999.0,'11133222,11111222,99999999' 
TABS,ioos:station:wmo:42050:1,1997-05-03T10:00:00Z,28.8425,-94.2433,2.0,176.9732497,19.69747446,-99999.0,'11111222,11111222,99999999' 
TABS,ioos:station:wmo:42050:1,1997-05-03T10:30:00Z,28.8425,-94.2433,2.0,181.2063434,35.61789719,-99999.0,'11111222,11111222,99999999' 
TABS,ioos:station:wmo:42050:1,1997-05-03T11:00:00Z,28.8425,-94.2433,2.0,185.0877791,45.32861017,-99999.0,'11111222,11111222,99999999' 
TABS,ioos:station:wmo:42050:1,1997-05-03T11:30:00Z,28.8425,-94.2433,2.0,195.2935136,55.92035497,-99999.0,'11111222,11111222,99999999' 
TABS,ioos:station:wmo:42050:1,1997-05-03T12:00:00Z,28.8425,-94.2433,2.0,200.2090858,63.8295582,-99999.0,'11111222,11111222,99999999' 
TABS,ioos:station:wmo:42050:1,1997-05-03T12:30:00Z,28.8425,-94.2433,2.0,199.9962409,65.79664809,-99999.0,'11111222,11111222,99999999' 
TABS,ioos:station:wmo:42050:1,1997-05-03T13:00:00Z,28.8425,-94.2433,2.0,208.5378812,67.67223507,-99999.0,'11111222,11111222,99999999' 
TABS,ioos:station:wmo:42050:1,1997-05-03T13:30:00Z,28.8425,-94.2433,2.0,216.8185886,65.14402582,-99999.0,'11111222,11111222,99999999' 
TABS,ioos:station:wmo:42050:1,1997-05-03T14:00:00Z,28.8425,-94.2433,2.0,224.1308491,62.48713948,-99999.0,'11111222,11111222,99999999' 
TABS,ioos:station:wmo:42050:1,1997-05-03T14:30:00Z,28.8425,-94.2433,2.0,234.2150219,59.87274004,-99999.0,'11111222,11111222,99999999' 
TABS,ioos:station:wmo:42050:1,1997-05-03T15:00:00Z,28.8425,-94.2433,2.0,241.180777,55.94945308,-99999.0,'11111222,11111222,99999999' 
TABS,ioos:station:wmo:42050:1,1997-05-03T15:30:00Z,28.8425,-94.2433,2.0,238.7133408,54.22528193,-99999.0,'11111222,11111222,99999999' 
TABS,ioos:station:wmo:42050:1,1997-05-03T16:00:00Z,28.8425,-94.2433,2.0,244.8665628,53.32898743,-99999.0,'11111222,11111222,99999999' 
TABS,ioos:station:wmo:42050:1,1997-05-03T16:30:00Z,28.8425,-94.2433,2.0,250.6775901,54.94483506,-99999.0,'11111222,11111222,99999999' 
TABS,ioos:station:wmo:42050:1,1997-05-03T17:00:00Z,28.8425,-94.2433,2.0,254.093952,55.46346185,-99999.0,'11111222,11111222,99999999' 
TABS,ioos:station:wmo:42050:1,1997-05-03T17:30:00Z,28.8425,-94.2433,2.0,262.7422087,54.22440963,-99999.0,'11111222,11111222,99999999' 
TABS,ioos:station:wmo:42050:1,1997-05-03T18:00:00Z,28.8425,-94.2433,2.0,267.7122722,48.60872864,-99999.0,'11111222,11111222,99999999' 
TABS,ioos:station:wmo:42050:1,1997-05-03T18:30:00Z,28.8425,-94.2433,2.0,270.0004209,50.21,-99999.0,'11111222,11111222,99999999' 
TABS,ioos:station:wmo:42050:1,1997-05-03T19:00:00Z,28.8425,-94.2433,2.0,273.7919415,47.33360117,-99999.0,'11111222,11111222,99999999' 
TABS,ioos:station:wmo:42050:1,1997-05-03T19:30:00Z,28.8425,-94.2433,2.0,274.8221083,44.25661984,-99999.0,'11111222,11111222,99999999' 
TABS,ioos:station:wmo:42050:1,1997-05-03T20:00:00Z,28.8425,-94.2433,2.0,270.6730057,51.11352169,-99999.0,'11111222,11111222,99999999' 
TABS,ioos:station:wmo:42050:1,1997-05-03T20:30:00Z,28.8425,-94.2433,2.0,271.1006983,46.34854582,-99999.0,'11111222,11111222,99999999' 
TABS,ioos:station:wmo:42050:1,1997-05-03T21:00:00Z,28.8425,-94.2433,2.0,271.0501928,48.57815353,-99999.0,'11111222,11111222,99999999' 
TABS,ioos:station:wmo:42050:1,1997-05-03T21:30:00Z,28.8425,-94.2433,2.0,272.5981146,42.8039858,-99999.0,'11111222,11111222,99999999' 
TABS,ioos:station:wmo:42050:1,1997-05-03T22:00:00Z,28.8425,-94.2433,2.0,278.944451,35.4409396,-99999.0,'11111222,11111222,99999999' 
TABS,ioos:station:wmo:42050:1,1997-05-03T22:30:00Z,28.8425,-94.2433,2.0,273.3222196,30.89190347,-99999.0,'11111222,11111222,99999999' 
TABS,ioos:station:wmo:42050:1,1997-05-03T23:00:00Z,28.8425,-94.2433,2.0,276.2029564,27.58145754,-99999.0,'11111222,11111222,99999999' 
TABS,ioos:station:wmo:42050:1,1997-05-03T23:30:00Z,28.8425,-94.2433,2.0,285.3245805,22.55180924,-99999.0,'11111222,11111222,99999999' 
TABS,ioos:station:wmo:42050:1,1997-05-04T00:00:00Z,28.8425,-94.2433,2.0,284.5108364,21.39237481,-99999.0,'11111222,11111222,99999999' 
TABS,ioos:station:wmo:42050:1,1997-05-04T00:30:00Z,28.8425,-94.2433,2.0,289.9856395,22.67550661,-99999.0,'11111222,11111222,99999999' 
TABS,ioos:station:wmo:42050:1,1997-05-04T01:00:00Z,28.8425,-94.2433,2.0,305.5500047,16.66642433,-99999.0,'11111222,11111222,99999999' 
TABS,ioos:station:wmo:42050:1,1997-05-04T01:30:00Z,28.8425,-94.2433,2.0,303.2444225,16.03409492,-99999.0,'11111222,11111222,99999999' 
TABS,ioos:station:wmo:42050:1,1997-05-04T02:00:00Z,28.8425,-94.2433,2.0,322.0509919,12.84627962,-99999.0,'11111222,11111222,99999999' 
TABS,ioos:station:wmo:42050:1,1997-05-04T02:30:00Z,28.8425,-94.2433,2.0,337.0617847,9.544762962,-99999.0,'11133222,11111222,99999999' 
TABS,ioos:station:wmo:42050:1,1997-05-04T03:00:00Z,28.8425,-94.2433,2.0,337.0609287,8.415515433,-99999.0,'11133222,11111222,99999999' 
TABS,ioos:station:wmo:42050:1,1997-05-04T03:30:00Z,28.8425,-94.2433,2.0,345.4460305,8.316886437,-99999.0,'11133222,11111222,99999999' 
TABS,ioos:station:wmo:42050:1,1997-05-04T04:00:00Z,28.8425,-94.2433,2.0,7.169556612,4.807587753,-99999.0,'11133222,11111222,99999999' 
TABS,ioos:station:wmo:42050:1,1997-05-04T04:30:00Z,28.8425,-94.2433,2.0,45.00010523,1.895046174,-99999.0,'11133222,11111222,99999999' 
TABS,ioos:station:wmo:42050:1,1997-05-04T05:00:00Z,28.8425,-94.2433,2.0,90.0,1.94,-99999.0,'11133222,11111222,99999999' 
TABS,ioos:station:wmo:42050:1,1997-05-04T05:30:00Z,28.8425,-94.2433,2.0,159.4965751,2.540964384,-99999.0,'11133222,11111222,99999999' 
TABS,ioos:station:wmo:42050:1,1997-05-04T06:00:00Z,28.8425,-94.2433,2.0,184.3430193,7.922752047,-99999.0,'11133222,11111222,99999999' 
TABS,ioos:station:wmo:42050:1,1997-05-04T06:30:00Z,28.8425,-94.2433,2.0,177.2863864,12.67421003,-99999.0,'11111222,11111222,99999999' 
TABS,ioos:station:wmo:42050:1,1997-05-04T07:00:00Z,28.8425,-94.2433,2.0,170.7294139,15.70512337,-99999.0,'11111222,11111222,99999999' 
TABS,ioos:station:wmo:42050:1,1997-05-04T07:30:00Z,28.8425,-94.2433,2.0,184.9932277,18.84151002,-99999.0,'11111222,11111222,99999999' 
TABS,ioos:station:wmo:42050:1,1997-05-04T08:00:00Z,28.8425,-94.2433,2.0,189.0227871,21.87064014,-99999.0,'11111222,11111222,99999999' 
TABS,ioos:station:wmo:42050:1,1997-05-04T08:30:00Z,28.8425,-94.2433,2.0,200.2733987,24.93474885,-99999.0,'11111222,11111222,99999999' 
TABS,ioos:station:wmo:42050:1,1997-05-04T09:00:00Z,28.8425,-94.2433,2.0,202.6982387,28.58387308,-99999.0,'11111222,11111222,99999999' 
TABS,ioos:station:wmo:42050:1,1997-05-04T09:30:00Z,28.8425,-94.2433,2.0,205.9725707,25.52831565,-99999.0,'11111222,11111222,99999999' 
TABS,ioos:station:wmo:42050:1,1997-05-04T10:00:00Z,28.8425,-94.2433,2.0,224.9996843,25.9225346,-99999.0,'11111222,11111222,99999999' 
TABS,ioos:station:wmo:42050:1,1997-05-04T10:30:00Z,28.8425,-94.2433,2.0,234.1094003,27.95808649,-99999.0,'11111222,11111222,99999999' 
TABS,ioos:station:wmo:42050:1,1997-05-04T11:00:00Z,28.8425,-94.2433,2.0,232.6711065,29.98096063,-99999.0,'11111222,11111222,99999999' 
TABS,ioos:station:wmo:42050:1,1997-05-04T11:30:00Z,28.8425,-94.2433,2.0,225.1939061,31.28965484,-99999.0,'11111222,11111222,99999999' 
TABS,ioos:station:wmo:42050:1,1997-05-04T12:00:00Z,28.8425,-94.2433,2.0,235.9846859,29.83502975,-99999.0,'11111222,11111222,99999999' 
TABS,ioos:station:wmo:42050:1,1997-05-04T12:30:00Z,28.8425,-94.2433,2.0,246.6522106,30.83479366,-99999.0,'11111222,11111222,99999999' 
TABS,ioos:station:wmo:42050:1,1997-05-04T13:00:00Z,28.8425,-94.2433,2.0,254.7302146,31.66793489,-99999.0,'11111222,11111222,99999999' 
TABS,ioos:station:wmo:42050:1,1997-05-04T13:30:00Z,28.8425,-94.2433,2.0,258.5496499,34.50673702,-99999.0,'11111222,11111222,99999999' 
TABS,ioos:station:wmo:42050:1,1997-05-04T14:00:00Z,28.8425,-94.2433,2.0,264.273709,37.28603492,-99999.0,'11111222,11111222,99999999' 
TABS,ioos:station:wmo:42050:1,1997-05-04T14:30:00Z,28.8425,-94.2433,2.0,266.0422204,38.83258941,-99999.0,'11111222,11111222,99999999' 
TABS,ioos:station:wmo:42050:1,1997-05-04T15:00:00Z,28.8425,-94.2433,2.0,276.0621955,40.90873745,-99999.0,'11111222,11111222,99999999' 
TABS,ioos:station:wmo:42050:1,1997-05-04T15:30:00Z,28.8425,-94.2433,2.0,279.5895381,43.8223014,-99999.0,'11111222,11111222,99999999' 
TABS,ioos:station:wmo:42050:1,1997-05-04T16:00:00Z,28.8425,-94.2433,2.0,282.0039849,40.82260403,-99999.0,'11111222,11111222,99999999' 